Montrose Regional Airport Montrose US
ICAO: KMTJ
IATA: MTJ
Category: Medium
Scheduled Services: No

Elevation: 5759 ft
TransAlt. 18000 ft.

Airport Communications:
ASOS:135.225
DENVER CNTR:125.35
DENVER RDO:122.65
CTAF/UNICOM:122.8

KMTJ Zoom In..

If you have problems with the map follow the link
https://www.worldairports.se/pages/airport.php?
ICAO=KMTJ

Runways:

(A) RW 13 length 7510 ft width 100 ft
---- / hdg 127

(B) RW 17 length 10000 ft width 150 ft
ILS 111.30 / hdg 168

(C) RW 31 length 7510 ft width 100 ft
---- / hdg 307

(D) RW 35 length 10000 ft width 150 ft
---- / hdg 348

Location; KMTJ
Day. 16 / Time. 11.53 Zulu
* Altimeter: 30.22
* Temperature: -04° c. -24.8°f.
* Wind from: 150° Speed 07 kn.
Dewpoint: -09° c.
Visibility: 10 Statute Miles.
Clouds: Clear (automated report).

KMTJ 161153Z AUTO 15007KT 10SM CLR M04/M09 A3022 RMK AO2 SLP226 T10391089 11006 21039 56005


Wind From 150°
Speed 07 kn.

 
 
jpsmedia.com for Web Design worldairports.se 2018   terms of use